Location: Brad
(46.1333°N, 22.7833°E)
Time: 20:35:22
(UTC+00:00)

Nadezhda 2 Rocket - Pass Details

Date: 03 February 2023
Orbit: 947 x 1011 km, 83.0° (Epoch: 23 March)

Event Time Altitude Azimuth Distance (km) Brightness Sun altitude
Rises 16:43:23 0° 353° (N) 3,676 7.5 -11.9°
Reaches altitude 10° 16:45:57 10° 356° (N) 2,716 6.8 -12.3°
Maximum altitude 16:52:08 66° 79° (E) 1,041 4.4 -13.4°
Drops below altitude 10° 16:58:11 10° 161° (SSE) 2,667 6.7 -14.4°
Sets 17:00:40 0° 165° (SSE) 3,604 7.4 -14.8°
